Flag for Honduras Weather past 2 weeks in Choloma, Honduras

Now
77 °F

Passing clouds.


Feels Like: 78 °F
Forecast: 71 / 87 °F
Wind: No wind

Location: La Mesa San Pedro Sula


UV Index: 10 (Very high)

Visibility: 4 mi


Pressure: 29.86 "Hg

Humidity: 94%

Dew point: 75 °F

Location of CholomaLocation

Historic Weather in Choloma

°F

Choloma temperature yesterday

Maximum temperature yesterday: 99 °F (at 12:00 PM)
Minimum temperature yesterday: 73 °F (at 5:00 AM)
Average temperature yesterday: 87 °F

Past Weeks' High & Low Weather Summary

 TemperatureHumidityPressure
High106 °F (Apr 7, 3:00 PM)100% (Apr 1, 2:00 AM)30.24 "Hg (Apr 1, 2:00 AM)
Low63 °F (Apr 10, 6:00 AM)19% (Apr 7, 3:00 PM)29.53 "Hg (Apr 5, 3:00 PM)
Average83 °F69%29.90 "Hg
* Reported Midnight between Mar 31 and Apr 1 — Midnight between Apr 15 and Apr 16, Choloma, Weather by CustomWeather, © 2014

Note: Actual official high and low records may vary slightly from our data, if they occured in-between our weather recording intervals... More about our weather records

Advertising

Historic Weather Conditions — Data for Previous 24 hours

 ConditionsComfort  
Time TempWeatherWind HumidityBarometerVisibility
12:00 AM
Apr 16
79 °FClear.No wind94%29.89 "Hg5 mi
11:00 PM
Apr 15
81 °FClear.3 mph89%29.89 "Hg5 mi
10:00 PM81 °FPassing clouds.5 mph89%29.89 "Hg5 mi
9:00 PM82 °FPassing clouds.6 mph84%29.86 "Hg5 mi
8:00 PM82 °FPassing clouds.7 mph84%29.86 "Hg5 mi
7:00 PM84 °FPassing clouds.13 mph79%29.83 "HgN/A
5:00 PM93 °FScattered clouds.14 mph53%29.74 "HgN/A
4:00 PM97 °FScattered clouds.12 mph47%29.74 "HgN/A
3:00 PM97 °FScattered clouds.15 mph42%29.74 "HgN/A
2:00 PM99 °FScattered clouds.12 mph37%29.80 "HgN/A
1:00 PM99 °FScattered clouds.8 mph53%29.77 "HgN/A
12:00 PM99 °FScattered clouds.5 mph31%29.80 "HgN/A
11:00 AM97 °FScattered clouds.3 mph34%29.83 "HgN/A
10:00 AM93 °FPassing clouds.7 mph39%29.86 "HgN/A
9:00 AM90 °FPassing clouds.13 mph46%29.83 "Hg5 mi
8:00 AM82 °FScattered clouds.7 mph70%29.86 "Hg5 mi
7:00 AM77 °FSunny.5 mph83%29.83 "HgN/A
6:00 AM75 °FSunny.5 mph83%29.80 "HgN/A
5:00 AM73 °FClear.5 mph89%29.80 "HgN/A
3:00 AM75 °FClear.No wind83%29.77 "HgN/A
Weather by CustomWeather, © 2014

See weather overview